sat.trackr.live / text

‹ back to catalog

STARLINK-34323

NORAD 64219 · 2025-117S

PAYLOAD ACTIVE UNKNOWN

§ Identity

Operator
Country
US
Launch date
2025-05-31
Launch site
AFWTR
Launch vehicle
Mass (kg)
RCS (m²)

Purposes: comms

External: N2YO · Heavens-Above · Gunter

§ Orbital elements

Epoch: 2026-09-20T12:26:10.891968Z

Period
93.85 min
Inclination
53.1592°
Eccentricity
0.0000870
Mean motion
15.34407736 rev/d
Perigee alt
462.1 km
Apogee alt
463.3 km
Semi-major
6,840.8 km
B*
8.8182e-4
RAAN
213.3083°
Arg perigee
232.1587°
Mean anomaly
127.9337°
Rev number
7,440

§ Raw data

STARLINK-343231 64219U 25117S   26263.51818162  .00029542  00000+0  88182-3 0  99902 64219  53.1592 213.3083 0000870 232.1587 127.9337 15.34407736 74409

JSON: /api/v1/satellites/64219 · /tle

For live sub-satellite position, see the globe view (requires WebGL).

§ Visibility from observer

Set your observer location to see the next 7 days of passes ≥ 10°. The values pass through the URL so the page stays shareable.

No JS? Fill the form by hand. The geolocation button needs JavaScript.